DUMMY CUBESAT

Satellite information

Favourite Embed

Satellite Type and Status

PAYLOADIN ORBIT

Key statistics

Satellite DUMMY CUBESAT at a glance.

Uptime

1174

Days in orbit

Revolutions

≈ 14.6

Per day

Orbit

SSO

Sun Synchronous Orbit

Inclination

98.2

Latest

Satellite identification and parameters

Extended collection of information and parameters for DUMMY CUBESAT.

Object identification

Identified? True

Debris? False

Object name: DUMMY CUBESAT

International designator: 2022-065H

Object number (NORAD): 52983

Object ID (CCSDS): 52983

Country: SOUTH KOREA (SKOR)

Current information (Y/N): Y

RCS size: SMALL

Orbital parameters

Period: 98.616 minutes

Inclination: 98.1879 deg

SMA: 7070.619 km

Apoapsis: 697.888 km

Periapsis: 687.081 km

RAAN: 28.7437 deg

Eccentricy: 0.00076421

Argument of periapsis: 178.8096 deg

Mean anomaly: 181.3123 deg

Mean motion: 14.6021425 rev/day

Mean motion (dot): 0.00000859 rev/day2

B* drag term: 0.00018772036 1/REarth

Two-line elements (TLE)

Creation date: Sept. 7, 2025, 3:09 a.m.

Reference frame: TEME

Reference center: EARTH

Epoch: Sept. 6, 2025, 10:27 p.m. UTC

TLE line 0: 0 DUMMY CUBESAT

TLE line 1: 1 52983U 22065H 25249.93575189 .00000859 00000-0 18772-3 0 9991

TLE line 2: 2 52983 98.1879 28.7437 0007642 178.8096 181.3123 14.60214250168807

Live tracking on map

Real-time ground track for satellite DUMMY CUBESAT.

In-orbit conjunctions

There are no conjunctions computed for DUMMY CUBESAT, at the moment. Check back to stay up to date, as we update our databases every day.

Go to all conjunctions

Associated space launch

Second flight of the KSLV-II "Nuri" launch vehicle, carrying a dummy satellite Payload of 1500 kg to sun-synchronous orbit. The mission will in addition launch the performance verification satellite (PVSAT) and four Cubesats: - CubeSat (6U) STEP Cube Lab-II - CubeSat (3U) SNUGLITE-II - CubeSat (3U) MIMAN - CubeSat (3U) RANDEV

DUMMY CUBESAT was lifted into orbit during the mission ‘Nuri | Flight Test 2’, on board a Nuri space rocket.

The launch took place on June 21, 2022, 7 a.m. from LC-2.

For more information about the launch, click the button.

Launch to space Nuri | Flight Test 2
Nuri | Flight Test 2

Agency: N/A

Status: Launch Successful

Launch date: June 21, 2022, 7 a.m. UTC

Rocket: Nuri

Launch pad: LC-2

Location: Naro Space Center, South Korea

...

Latest news about this satellite

News about space launch
KARI reaches orbit on second test flight of domestic Nuri rocket

The Korean Aerospace Research Institute (KARI) has conducted its second launch of the Korea Space Launch Vehicle (KSLV)-II rocket, also known as Nuri. This was Nuri’s return to flight after nearly reaching orbit on its previous mission. The rocket lifted ...

News about space launch
South Korean rocket puts satellites in orbit for the first time in second flight

South Korea’s homegrown rocket KSLV-2 successfully put satellites into low Earth orbit for the first time in its second flight June 21.


Newsletter sign-up

Weekly statistics, charts and insights to help you stay on top of the space industry.